Regional Weather Roundup
Issued by NWS

Home | Current Version | Previous Version | Graphics & Text | Print | Product List | Glossary On
Versions: 1 2 3 4 5 6 7 8 9 10 11 12 13 14 15 16 17 18 19 20 21 22 23 24 25 26 27 28 29 30 31 32 33 34 35 36 37 38 39 40 41 42 43 44 45 46 47 48 49 50
000
ASUS45 KBOU 031210
RWRCO

WEATHER ROUNDUP FOR COLORADO
NATIONAL WEATHER SERVICE DENVER/BOULDER CO
600 AM MDT MON AUG 03 2015

NOTE: "FAIR" INDICATES FEW OR NO CLOUDS BELOW 12000 FEET WITH NO
SIGNIFICANT WEATHER AND/OR OBSTRUCTIONS TO VISIBILITY.

COZ001>005-013-030-031-031300-
...NORTHWEST COLORADO...

CITY           SKY/WX    TMP DP  RH WIND       PRES   REMARKS
CRAIG          CLOUDY    58  50  75 SE9       30.17S
HAYDEN         CLOUDY    57  50  77 E3        30.18R
MEEKER         CLOUDY    58  56  93 SE5       30.17R
MOUNT WERNER   NOT AVBL
STEAMBOAT SPGS CLOUDY    56  49  78 CALM      30.20S
WALDEN         CLOUDY    50  43  76 SE7       30.28S
$$

COZ006>008-011-031300-
...WEST CENTRAL VALLEYS...

CITY           SKY/WX    TMP DP  RH WIND       PRES   REMARKS
GRAND JUNCTION MOCLDY    63  57  81 CALM      30.09R
MONTROSE       CLOUDY    60  58  92 CALM      30.17R
EAGLE          CLOUDY    57  55  94 E6        30.23R
RIFLE          CLOUDY    61  58  90 CALM      30.14R
DELTA          CLOUDY    63  60  88 NE3       30.13S
NUCLA          CLOUDY    57  54  88 E6        30.22R
$$

COZ017>023-064>068-031300-
...SOUTHWEST COLORADO...

CITY           SKY/WX    TMP DP  RH WIND       PRES   REMARKS
DURANGO        PTCLDY    52  51  97 CALM      30.25R
CORTEZ         MOCLDY    57  55  93 NE3       30.19R
PAGOSA SPRINGS CLOUDY    55  55 100 CALM      30.30S THUNDER
TELLURIDE      RAIN      52  49  92 CALM      30.38R
WOLF CREEK PAS NOT AVBL
$$

COZ009-010-012-014-032>034-037-058>063-031300-
...CENTRAL COLORADO...

CITY           SKY/WX    TMP DP  RH WIND       PRES   REMARKS
ASPEN          CLOUDY    53  51  93 CALM      30.27R
BUENA VISTA    CLOUDY    54  51  91 W3        30.32R
COPPER MTN     CLOUDY    52  32  46 MISG      30.53R
BERTHOUD PASS  MOCLDY    43  32  65 SE31G39   30.60S
COTTONWOOD PAS CLOUDY    54  45  71 CALM      30.42R
GUNNISON       CLOUDY    54  50  87 NE5       30.31S
KREMMLING      CLOUDY    54  45  71 CALM      30.26S
LEADVILLE      CLOUDY    46  46 100 E3        30.41S
MONARCH PASS   CLOUDY    45  34  65 S8        30.65R
SALIDA         NOT AVBL
SUNLIGHT       RAIN      46  46 100 CALM      30.48S
WILKERSON PASS CLOUDY    50  36  57 S6        30.54F
$$

COZ069>075-031300-
...SAN LUIS VALLEY/SANGRE DE CRISTO MOUNTAINS...

CITY           SKY/WX    TMP DP  RH WIND       PRES   REMARKS
ALAMOSA        CLOUDY    55  53  93 CALM      30.28R
LA VETA PASS   LGT RAIN  45  45 100 MISG      30.43S
SAGUACHE       CLOUDY    55  52  88 NW3       30.31S
$$

COZ035-036-038>040-031300-
...NORTHERN COLORADO FRONT RANGE...

CITY           SKY/WX    TMP DP  RH WIND       PRES   REMARKS
DENVER INTL AP CLOUDY    70  47  43 S13       30.09R
DMNS CITY PARK   N/A     67  50  55 E9        30.08S
AURORA         MOCLDY    64  52  64 S8        30.11S
FRONT RANGE AP NOT AVBL
ERIE MUNI ARPT CLOUDY    63  55  74 CALM      30.08R
BOULDER MUN AP CLOUDY    66  50  55 CALM      30.08R
CENTENNIAL     CLOUDY    63  52  67 S6        30.12S
BROOMFIELD     CLOUDY    64  52  63 CALM      30.11S
FORT COLLINS   CLOUDY    63  52  67 N7        30.08R
LONGMONT       CLOUDY    65  53  63 CALM      30.08S
$$

COZ041-046-047-076>085-087-088-031300-
...PIKES PEAK/PALMER DIVIDE AND SOUTHERN FOOTHILLS...

CITY           SKY/WX    TMP DP  RH WIND       PRES   REMARKS
COLO. SPRINGS  CLOUDY    65  52  62 N5        30.17S
A. F. ACADEMY  CLOUDY    60  51  73 N6        30.18S
ELLICOTT       CLOUDY   N/A N/A N/A E8        30.14S
FALCON         CLOUDY    61  52  72 CALM      30.22S
FORT CARSON    CLOUDY    64  52  64 N6        30.12F
LIMON          CLOUDY    57  53  86 N3        30.11S
MONUMENT HILL  NOT AVBL
TRINIDAD       CLOUDY    63  55  75 W9        30.11F
$$

COZ042>045-048>051-090-091-031300-
...NORTHEAST COLORADO...

CITY           SKY/WX    TMP DP  RH WIND       PRES   REMARKS
GREELEY ARPT   CLOUDY    61  52  72 CALM      30.06S
AKRON          MOCLDY    68  54  60 SW9       30.05S
BURLINGTON     MOCLDY    63  59  87 SW5       30.03S
WRAY           PTCLDY    63  57  82 SW6       30.00S
STERLING       MOCLDY    55  54  94 W5        30.01S
HOLYOKE        PTCLDY    61  55  82 W5        30.00S
FORT MORGAN    MOCLDY    65  50  59 CALM      30.05S
$$

COZ086-089-092>099-031300-
...SOUTHEAST COLORADO...

CITY           SKY/WX    TMP DP  RH WIND       PRES   REMARKS
PUEBLO         CLOUDY    68  58  70 CALM      30.05S
LA JUNTA       CLOUDY    68  56  65 W7        30.02R
LAMAR          CLOUDY    67  61  81 CALM      29.98R
SPRINGFIELD      N/A     67  59  75 CALM      30.03R
$$



USA.gov is the U.S. government's official web portal to all federal, state and local government web resources and services.